When you browse on this site, cookies collect data to enhance your experience and personalize the content and advertising you see.
Visit our Privacy Policy to learn more. By continuing to use the site, you agree to this use of cookies and data.
  • In Österreich
  • Länderverzeichnis
  • Für 7 Tage
  • Wassertemperatur
  • Satellitenkarten
  • Wetterkarte
  • News
  • Widgets
  • user-avatar
    Anmelden

    Stündliche Wetter Algier

    Heute, 26 März, Dienstag

    Zeit Temperatur Niederschläge Wind Luftdruck Luftfeuchtigkeit
    00:00 +15°C° 0 mm 2 m/S 749 mmHg 74%
    01:00 +15°C° 0 mm 2 m/S 749 mmHg 75%
    02:00 +14°C° 0 mm 3 m/S 749 mmHg 75%
    03:00 +14°C° 0 mm 3 m/S 749 mmHg 76%
    04:00 +14°C° 0 mm 4 m/S 749 mmHg 76%
    05:00 +14°C° 0 mm 6 m/S 749 mmHg 76%
    06:00 +12°C° 0 mm 7 m/S 749 mmHg 76%
    07:00 +13°C° 0 mm 8 m/S 750 mmHg 71%
    08:00 +15°C° 0 mm 8 m/S 750 mmHg 65%
    09:00 +16°C° 0 mm 8 m/S 750 mmHg 60%
    10:00 +16°C° 0 mm 9 m/S 750 mmHg 58%
    11:00 +16°C° 0 mm 9 m/S 750 mmHg 56%
    12:00 +16°C° 0 mm 9 m/S 751 mmHg 54%
    13:00 +16°C° 0 mm 8 m/S 751 mmHg 54%
    14:00 +15°C° 0 mm 8 m/S 750 mmHg 55%
    15:00 +15°C° 0 mm 8 m/S 750 mmHg 55%
    16:00 +14°C° 0 mm 7 m/S 751 mmHg 58%
    17:00 +13°C° 0 mm 6 m/S 751 mmHg 61%
    18:00 +11°C° 0 mm 6 m/S 751 mmHg 64%
    19:00 +11°C° 0 mm 6 m/S 751 mmHg 65%
    20:00 +10°C° 0 mm 6 m/S 752 mmHg 67%
    21:00 +10°C° 0 mm 6 m/S 752 mmHg 68%
    22:00 +10°C° 0 mm 6 m/S 753 mmHg 68%
    23:00 +10°C° 0 mm 6 m/S 753 mmHg 68%

    Morgen, 27 März, Mittwoch

    Zeit Temperatur Niederschläge Wind Luftdruck Luftfeuchtigkeit
    00:00 +10°C° 0 mm 6 m/S 753 mmHg 68%
    01:00 +10°C° 0 mm 6 m/S 753 mmHg 68%
    02:00 +9°C° 0 mm 6 m/S 752 mmHg 69%
    03:00 +9°C° 0 mm 6 m/S 752 mmHg 69%
    04:00 +9°C° 0 mm 6 m/S 752 mmHg 69%
    05:00 +9°C° 0 mm 6 m/S 752 mmHg 69%
    06:00 +9°C° 0 mm 5 m/S 752 mmHg 69%
    07:00 +10°C° 0 mm 6 m/S 752 mmHg 66%
    08:00 +11°C° 0 mm 6 m/S 753 mmHg 63%
    09:00 +13°C° 0 mm 6 m/S 753 mmHg 59%
    10:00 +14°C° 0 mm 6 m/S 753 mmHg 58%
    11:00 +14°C° 0 mm 6 m/S 753 mmHg 56%
    12:00 +15°C° 0 mm 6 m/S 752 mmHg 54%
    13:00 +15°C° 0 mm 6 m/S 752 mmHg 55%
    14:00 +15°C° 0 mm 6 m/S 752 mmHg 55%
    15:00 +15°C° 0 mm 6 m/S 752 mmHg 56%
    16:00 +14°C° 0 mm 6 m/S 752 mmHg 59%
    17:00 +13°C° 0 mm 5 m/S 752 mmHg 62%
    18:00 +13°C° 0 mm 4 m/S 753 mmHg 65%
    19:00 +12°C° 0 mm 4 m/S 753 mmHg 67%
    20:00 +12°C° 0 mm 4 m/S 754 mmHg 69%
    21:00 +11°C° 0 mm 4 m/S 754 mmHg 71%
    22:00 +11°C° 0 mm 3 m/S 754 mmHg 72%
    23:00 +11°C° 0 mm 3 m/S 754 mmHg 73%

    übermorgen, 28 März, Donnerstag

    Zeit Temperatur Niederschläge Wind Luftdruck Luftfeuchtigkeit
    00:00 +11°C° 0 mm 3 m/S 754 mmHg 74%
    01:00 +10°C° 0 mm 2 m/S 754 mmHg 75%
    02:00 +10°C° 0 mm 2 m/S 754 mmHg 76%
    03:00 +10°C° 0 mm 2 m/S 754 mmHg 76%
    04:00 +10°C° 0 mm 2 m/S 755 mmHg 77%
    05:00 +10°C° 0 mm 2 m/S 755 mmHg 78%
    06:00 +10°C° 0 mm 2 m/S 755 mmHg 79%
    07:00 +12°C° 0 mm 2 m/S 755 mmHg 74%
    08:00 +13°C° 0 mm 2 m/S 756 mmHg 69%
    09:00 +15°C° 0 mm 2 m/S 756 mmHg 64%
    10:00 +16°C° 0 mm 3 m/S 756 mmHg 61%
    11:00 +16°C° 0 mm 3 m/S 755 mmHg 58%
    12:00 +17°C° 0 mm 4 m/S 755 mmHg 55%
    13:00 +17°C° 0 mm 4 m/S 755 mmHg 57%
    14:00 +16°C° 0 mm 5 m/S 755 mmHg 58%
    15:00 +16°C° 0 mm 5 m/S 754 mmHg 60%
    16:00 +15°C° 0 mm 5 m/S 754 mmHg 64%
    17:00 +14°C° 0 mm 5 m/S 754 mmHg 67%
    18:00 +13°C° 0 mm 5 m/S 755 mmHg 71%
    19:00 +13°C° 0 mm 4 m/S 755 mmHg 73%
    20:00 +12°C° 0 mm 4 m/S 756 mmHg 74%
    21:00 +12°C° 0 mm 3 m/S 756 mmHg 76%
    22:00 +12°C° 0 mm 3 m/S 756 mmHg 77%
    23:00 +12°C° 0 mm 2 m/S 756 mmHg 78%

    29 März, Freitag

    Zeit Temperatur Niederschläge Wind Luftdruck Luftfeuchtigkeit
    00:00 +12°C° 0 mm 2 m/S 756 mmHg 78%
    01:00 +12°C° 0 mm 2 m/S 755 mmHg 79%
    02:00 +12°C° 0 mm 2 m/S 755 mmHg 79%
    03:00 +10°C° 0 mm 2 m/S 755 mmHg 80%
    04:00 +10°C° 0 mm 2 m/S 755 mmHg 79%
    05:00 +10°C° 0 mm 2 m/S 755 mmHg 79%
    06:00 +10°C° 0 mm 2 m/S 755 mmHg 79%
    07:00 +13°C° 0 mm 2 m/S 755 mmHg 72%
    08:00 +15°C° 0 mm 2 m/S 755 mmHg 65%
    09:00 +16°C° 0 mm 2 m/S 755 mmHg 57%
    10:00 +18°C° 0 mm 3 m/S 755 mmHg 54%
    11:00 +19°C° 0 mm 3 m/S 755 mmHg 50%
    12:00 +20°C° 0 mm 4 m/S 754 mmHg 47%
    13:00 +20°C° 0 mm 5 m/S 754 mmHg 50%
    14:00 +20°C° 0 mm 5 m/S 754 mmHg 53%
    15:00 +19°C° 0 mm 6 m/S 753 mmHg 56%
    16:00 +17°C° 0 mm 6 m/S 753 mmHg 61%
    17:00 +16°C° 0 mm 5 m/S 753 mmHg 66%
    18:00 +15°C° 0 mm 5 m/S 753 mmHg 71%
    19:00 +15°C° 0 mm 4 m/S 754 mmHg 71%
    20:00 +15°C° 0 mm 4 m/S 754 mmHg 70%
    21:00 +16°C° 0 mm 3 m/S 754 mmHg 70%
    22:00 +14°C° 0 mm 3 m/S 754 mmHg 65%
    23:00 +14°C° 0 mm 3 m/S 754 mmHg 61%

    30 März, Samstag

    Zeit Temperatur Niederschläge Wind Luftdruck Luftfeuchtigkeit
    00:00 +14°C° 0 mm 3 m/S 754 mmHg 57%
    01:00 +14°C° 0 mm 3 m/S 753 mmHg 55%
    02:00 +14°C° 0 mm 3 m/S 753 mmHg 53%
    03:00 +14°C° 0 mm 4 m/S 753 mmHg 52%
    04:00 +14°C° 0 mm 4 m/S 753 mmHg 52%
    05:00 +14°C° 0 mm 4 m/S 753 mmHg 53%
    06:00 +14°C° 0 mm 4 m/S 753 mmHg 54%
    07:00 +15°C° 0 mm 4 m/S 753 mmHg 50%
    08:00 +18°C° 0 mm 4 m/S 753 mmHg 46%
    09:00 +20°C° 0 mm 4 m/S 753 mmHg 42%
    10:00 +21°C° 0 mm 4 m/S 753 mmHg 40%
    11:00 +22°C° 0 mm 3 m/S 752 mmHg 38%
    12:00 +24°C° 0 mm 3 m/S 752 mmHg 35%
    13:00 +24°C° 0 mm 3 m/S 751 mmHg 36%
    14:00 +24°C° 0 mm 2 m/S 751 mmHg 36%
    15:00 +24°C° 0 mm 2 m/S 750 mmHg 36%
    16:00 +23°C° 0 mm 2 m/S 750 mmHg 39%
    17:00 +21°C° 0 mm 3 m/S 750 mmHg 41%
    18:00 +20°C° 0 mm 3 m/S 750 mmHg 43%
    19:00 +20°C° 0 mm 3 m/S 750 mmHg 44%
    20:00 +19°C° 0 mm 4 m/S 750 mmHg 45%
    21:00 +18°C° 0 mm 4 m/S 751 mmHg 45%
    22:00 +18°C° 0 mm 4 m/S 750 mmHg 46%
    23:00 +18°C° 0 mm 4 m/S 750 mmHg 46%

    31 März, Sonntag

    Zeit Temperatur Niederschläge Wind Luftdruck Luftfeuchtigkeit
    00:00 +17°C° 0 mm 4 m/S 749 mmHg 47%
    01:00 +17°C° 0 mm 4 m/S 749 mmHg 48%
    02:00 +17°C° 0 mm 4 m/S 749 mmHg 49%
    03:00 +16°C° 0 mm 3 m/S 748 mmHg 50%
    04:00 +16°C° 0 mm 3 m/S 748 mmHg 51%
    05:00 +16°C° 0 mm 3 m/S 748 mmHg 51%
    06:00 +16°C° 0 mm 3 m/S 748 mmHg 52%
    07:00 +17°C° 0 mm 3 m/S 748 mmHg 50%
    08:00 +18°C° 0 mm 3 m/S 748 mmHg 48%
    09:00 +19°C° 0 mm 3 m/S 748 mmHg 46%
    10:00 +20°C° 0 mm 2 m/S 748 mmHg 44%
    11:00 +21°C° 0 mm 2 m/S 747 mmHg 42%
    12:00 +23°C° 0 mm 2 m/S 747 mmHg 40%
    13:00 +21°C° 0 mm 2 m/S 747 mmHg 41%
    14:00 +21°C° 0 mm 2 m/S 746 mmHg 43%
    15:00 +21°C° 0 mm 2 m/S 746 mmHg 44%
    16:00 +20°C° 0 mm 2 m/S 746 mmHg 49%
    17:00 +20°C° 0 mm 1 m/S 746 mmHg 53%
    18:00 +19°C° 0 mm 1 m/S 747 mmHg 58%
    19:00 +19°C° 0 mm 1 m/S 747 mmHg 60%
    20:00 +18°C° 0 mm 1 m/S 747 mmHg 62%
    21:00 +18°C° 0 mm 1 m/S 748 mmHg 64%
    22:00 +16°C° 0 mm 1 m/S 748 mmHg 64%
    23:00 +16°C° 0 mm 1 m/S 748 mmHg 65%
    Mehr zeigen